{"data":{"norad_id":67562,"intl_designator":"2026-016B","name":"STARLINK-36398","alt_names":[],"object_type":"PAYLOAD","status":"ACTIVE","operator":null,"country":"US","launch_date":"2026-01-25","launch_site_code":"AFWTR","launch_vehicle":null,"mission":null,"orbit_class":"UNKNOWN","rcs_meters":null,"size_class":null,"mass_kg":null,"dimensions":null,"purposes":["comms"],"wikipedia_slug":null,"has_3d_model":false,"image_url":null,"decayed_at":null,"tle_current":{"epoch":"2026-09-19T09:19:19.526880Z","epoch_age_seconds":168347,"freshness":"FRESH","line1":"1 67562U 26016B   26262.38842045  .00014095  00000+0  43801-3 0  9990","line2":"2 67562  97.2853 321.1184 0000814  90.1482 269.9854 15.33453400 36559","mean_motion":15.334534,"eccentricity":8.14e-5,"inclination_deg":97.2853,"raan_deg":321.1184,"arg_perigee_deg":90.1482,"mean_anomaly_deg":269.9854,"bstar":0.00043801,"rev_number":3655,"period_min":93.905690254428,"perigee_km":464.9611085703,"apogee_km":466.07525563394,"semimajor_km":6843.6551821021,"source":"CELESTRAK","updated_at":"2026-09-20T09:00:43.573514Z"}}}